Location: Newark
(54.6833°N, 25.2833°E)
Time: 19:11:01
(UTC+00:00)

Tiros 1 despin weight - Pass Details

Date: 21 November 2019
Orbit: 594 x 642 km, 48.2° (Epoch: 10 December)

Event Time Altitude Azimuth Distance (km) Brightness Sun altitude
Rises 14:50:44 0° 267° (W) 2,838 ? -6.1°
Reaches altitude 10° 14:53:14 10° 256° (WSW) 1,940 ? -6.4°
Maximum altitude 14:57:03 29° 197° (SSW) 1,121 ? -6.9°
Drops below altitude 10° 15:00:55 10° 137° (SE) 1,957 ? -7.4°
Sets 15:03:27 0° 126° (SE) 2,868 ? -7.7°
